Home   Weather   Nome   Past weeks

Flag for USA Past Weather in Nome, Alaska, USA — Yesterday and Last 2 Weeks

Now
1 °F

Clear.


Feels Like: 1 °F
Forecast: -13 / -6 °F
Wind: No wind

Location: Nome Airport

Current Time: Dec 7, 2016 at 11:16:02 pm

Latest Report: Dec 7, 2016 at 10:53 pm


Visibility: 10 mi

Pressure: 30.70 "Hg

Humidity: N/A

Dew Point: N/A

Location of NomeLocation

Past Weather in Nome — Graph

°F

Nome Temperature Yesterday

Maximum temperature yesterday: 2 °F (at 1:53 am)
Minimum temperature yesterday: -14 °F (at 11:53 am)
Average temperature yesterday: -8 °F

High & Low Weather Summary for the Past Weeks

 TemperatureHumidityPressure
High17 °F (Nov 24, 9:53 am)95% (Nov 23, 5:53 pm)30.75 "Hg (Nov 23, 5:53 pm)
Low-14 °F (Nov 27, 4:53 am)26% (Dec 7, 8:53 am)29.43 "Hg (Nov 26, 2:53 pm)
Average-1 °F75%30.01 "Hg
* Reported Nov 22 9:53 pm — Dec 7 9:53 pm, Nome, Weather by CustomWeather, © 2016

Note: Actual official high and low records may vary slightly from our data, if they occured in-between our weather recording intervals... More about our weather records

Advertising

Nome Weather History for the Previous 24 Hours

Scroll right to see more
 ConditionsComfort  
Time TempWeatherWind HumidityBarometerVisibility
9:53 pm
Wed, Dec 7
8 °FClear.9 mphN/A30.70 "Hg10 mi
8:53 pm2 °FClear.3 mph52%30.72 "Hg10 mi
7:53 pm-3 °FClear.7 mph58%30.73 "Hg10 mi
6:53 pm-4 °FClear.3 mph58%30.73 "Hg10 mi
5:53 pm-3 °FClear.No wind61%30.73 "Hg10 mi
4:53 pm1 °FClear.No wind54%30.74 "Hg10 mi
3:53 pm1 °FSunny.No wind54%30.74 "Hg10 mi
2:53 pm-1 °FSunny.No wind59%30.74 "Hg10 mi
1:53 pm2 °FSunny.No wind54%30.75 "Hg10 mi
12:53 pm4 °FSunny.8 mph47%30.75 "Hg10 mi
11:53 am6 °FSunny.10 mph45%30.74 "Hg10 mi
10:53 am3 °FClear.7 mph49%30.75 "Hg10 mi
9:53 am14 °FClear.6 mph30%30.73 "Hg10 mi
8:53 am17 °FClear.3 mph26%30.74 "Hg10 mi
7:53 am15 °FClear.5 mph27%30.73 "Hg10 mi
6:53 am10 °FClear.7 mph36%30.72 "Hg10 mi
5:53 am3 °FClear.6 mph44%30.72 "Hg10 mi
4:53 am1 °FClear.5 mph48%30.71 "Hg10 mi
3:53 am-6 °FClear.No wind61%30.72 "Hg10 mi
2:53 am-7 °FClear.5 mph64%30.72 "Hg10 mi
1:53 am-8 °FClear.No wind67%30.71 "Hg10 mi
12:53 am-3 °FClear.No wind55%30.70 "Hg10 mi
11:53 pm
Tue, Dec 6
-4 °FClear.No wind61%30.68 "Hg10 mi
Weather by CustomWeather, © 2016

See weather overviewHow to use our weather pages